STARLINK-2705 (48672 NORAD) Tracking and Keplerian Element Data

This shows tracking and keplerian element data for the satellite.

Feedback or suggestion? Click here.




ElementValue
Catalog48672
NameSTARLINK-2705
Epoch Orbit1156
Epoch Day214.91667824
Epoch Year2021
RAAN92.4719
Inclination53.0445
Eccentricity0.0001499
Argument of Perigee56.7146
Mean Anonmoly271.0673
Mean Motion15.12253022
Decay Rate-0.00922696
L11 48672U 21044AL 21214.91667824 -.00922696 00000-0 -57022-1 0 9994
L22 48672 53.0445 92.4719 0001499 56.7146 271.0673 15.12253022 11566

Live tracking and technical data element details for STARLINK-2705 (NORAD 48672). STARLINK-2705 can be tracked NOW for your location showing map with azimuth and elevation plus other details from your city location.

Track the satellite on the map from your city or location and see movement details for azimuth, elevation, latitude, longitude, range, height, and movement on the map or in text.







IsCatalogInMostPopularTable: catalog: 48672, numindb: 18
Update: records affected: 1



GetName: 48672 STARLINK-2705

Hit Count: updated at: Wed, 04 Aug 2021 00:43:10 GMT